Overview Statistics Trail Chart Weather Telemetry Raw packets
 

This is the latest recevied weather packets stored in our database for station/object IR9AK-10. If no packets are shown the sender has not sent any weather packets the latest 10 day(s).

<< 49 50 51 52 53 54 55 >>
Time Temp. Humidity Pressure Rain* Wind** Luminosity Snow
1787838099 46.11° C 30% 1061 hPa - - - -
1787837501 45.56° C 29% 1061 hPa - - - -
1787836902 45.56° C 31% 1061 hPa - - - -
1787836303 45.56° C 31% 1061.2 hPa - - - -
1787835704 46.11° C 27% 1061.1 hPa - - - -
1787835105 45.56° C 26% 1061 hPa - - - -
1787834506 46.11° C 28% 1061 hPa - - - -
1787833907 45.56° C 25% 1061.2 hPa - - - -
1787833309 45.56° C 28% 1061.2 hPa - - - -
1787832709 45.56° C 26% 1061.2 hPa - - - -
1787832109 45.56° C 26% 1061.3 hPa - - - -
1787831510 45.56° C 25% 1061.4 hPa - - - -
1787830911 45.56° C 26% 1061.5 hPa - - - -
1787830312 45.56° C 24% 1061.6 hPa - - - -
1787829714 45° C 25% 1061.7 hPa - - - -
1787829115 44.44° C 27% 1061.9 hPa - - - -
1787828517 44.44° C 29% 1062 hPa - - - -
1787827918 44.44° C 28% 1062.1 hPa - - - -
1787827319 43.89° C 25% 1062.2 hPa - - - -
1787826799 43.89° C 28% 1062.3 hPa - - - -
1787826720 43.89° C 28% 1062.3 hPa - - - -
1787826120 43.89° C 27% 1062.4 hPa - - - -
1787825521 44.44° C 32% 1062.4 hPa - - - -
1787824922 43.89° C 31% 1062.4 hPa - - - -
1787824324 44.44° C 28% 1062.5 hPa - - - -

* Rain since midnight (hover to see other rain measurements)
** Current wind speed in m/s (hover to see current wind gust speed)